Date Time,Air Temp,Sky Temp,Clarity,Light Level,Rain Sensor,Readings
2010-10-04 00:00:10,18.9,5.2,13.8,0.0,3.4,112
2010-10-04 00:05:10,18.9,4.9,14.0,0.0,4.4,111
2010-10-04 00:10:10,18.9,5.0,13.9,0.0,3.1,112
2010-10-04 00:15:10,19.0,5.4,13.6,0.0,2.9,112
2010-10-04 00:20:10,19.0,5.5,13.5,0.0,2.7,112
2010-10-04 00:25:10,19.0,5.1,14.0,0.0,2.8,112
2010-10-04 00:30:10,19.0,5.4,13.6,0.0,2.3,112
2010-10-04 00:35:10,19.1,5.2,13.9,0.0,2.3,112
2010-10-04 00:40:11,19.1,6.3,12.7,0.0,2.3,111
2010-10-04 00:45:11,19.1,5.9,13.3,0.0,2.3,111
2010-10-04 00:50:11,19.1,5.3,13.9,0.0,2.3,112
2010-10-04 00:55:11,19.1,5.9,13.2,0.0,2.3,112
2010-10-04 01:00:11,18.9,6.4,12.5,0.0,2.4,111
2010-10-04 01:05:11,19.3,7.3,12.0,0.0,2.4,111
2010-10-04 01:10:11,19.3,7.6,11.8,0.0,4.0,112
2010-10-04 01:15:11,19.3,7.2,12.1,0.0,9.6,111
2010-10-04 01:20:11,19.2,7.3,11.9,0.0,4.8,112
2010-10-04 01:25:11,19.2,7.5,11.7,0.0,4.3,111
2010-10-04 01:30:11,19.1,7.3,11.8,0.0,3.9,112
2010-10-04 01:35:11,19.1,7.2,11.9,0.0,3.1,111
2010-10-04 01:40:11,19.1,7.5,11.5,0.0,2.7,111
2010-10-04 01:45:11,19.0,7.9,11.1,0.0,3.1,112
2010-10-04 01:50:11,19.0,7.9,11.2,0.0,2.7,111
2010-10-04 01:55:11,19.1,7.9,11.2,0.0,3.9,111
2010-10-04 02:00:11,19.1,8.1,11.0,0.0,3.3,112
2010-10-04 02:05:11,19.1,8.1,11.0,0.0,3.2,112
2010-10-04 02:10:11,19.1,7.8,11.3,0.0,2.6,111
2010-10-04 02:15:11,19.1,7.8,11.2,0.0,2.4,111
2010-10-04 02:20:11,19.1,8.1,11.0,0.0,2.3,111
2010-10-04 02:25:11,19.1,8.7,10.4,0.0,2.3,112
2010-10-04 02:30:11,19.1,8.8,10.4,0.0,2.3,111
2010-10-04 02:35:11,19.2,8.3,10.9,0.0,2.3,112
2010-10-04 02:40:11,19.2,8.5,10.6,0.0,2.3,112
2010-10-04 02:45:11,19.1,8.8,10.3,0.0,2.4,111
2010-10-04 02:50:11,19.1,8.8,10.3,0.0,2.5,112
2010-10-04 02:55:11,19.1,8.5,10.6,0.0,2.5,111
2010-10-04 03:00:11,19.1,8.1,11.0,0.0,2.3,112
2010-10-04 03:05:11,19.1,8.0,11.1,0.0,2.3,111
2010-10-04 03:10:11,19.1,7.2,11.9,0.0,2.3,112
2010-10-04 03:15:11,19.1,7.3,11.8,0.0,2.3,112
2010-10-04 03:20:11,19.1,7.7,11.4,0.0,2.3,111
2010-10-04 03:25:11,19.1,8.0,11.1,0.0,2.5,112
2010-10-04 03:30:11,19.1,8.2,10.9,0.0,2.3,112
2010-10-04 03:35:11,19.1,8.1,11.0,0.0,2.3,111
2010-10-04 03:40:11,19.1,8.4,10.7,0.0,2.7,111
2010-10-04 03:45:11,19.2,8.2,11.0,0.0,2.3,112
2010-10-04 03:50:11,19.1,8.4,10.7,0.0,2.3,111
2010-10-04 03:55:11,19.1,8.5,10.6,0.0,2.3,111
2010-10-04 04:00:11,19.1,8.6,10.5,0.0,2.3,112
2010-10-04 04:05:11,19.2,8.5,10.7,0.0,2.3,111
2010-10-04 04:10:11,19.2,8.6,10.6,0.0,2.3,111
2010-10-04 04:15:11,19.2,8.6,10.6,0.0,2.3,112
2010-10-04 04:20:11,19.2,8.5,10.7,0.0,2.3,111
2010-10-04 04:25:11,19.2,8.6,10.6,0.0,2.3,111
2010-10-04 04:30:11,19.2,8.9,10.3,0.0,2.5,112
2010-10-04 04:35:11,19.2,8.6,10.6,0.0,2.4,111
2010-10-04 04:40:11,19.1,8.7,10.4,0.0,2.6,111
2010-10-04 04:45:11,19.1,8.3,10.8,0.0,5.0,112
2010-10-04 04:50:11,19.1,8.1,10.9,0.0,11.1,111
2010-10-04 04:55:11,19.0,9.5,9.4,0.0,6.6,112
2010-10-04 05:00:11,18.9,9.0,10.0,0.0,3.2,111
2010-10-04 05:05:11,18.9,8.3,10.5,0.0,4.4,112
2010-10-04 05:10:11,18.9,8.5,10.3,0.0,2.6,111
2010-10-04 05:15:11,18.5,8.6,9.9,0.0,2.4,112
2010-10-04 05:20:11,18.9,8.7,10.1,0.0,2.3,111
2010-10-04 05:25:11,18.9,8.8,10.1,0.0,2.3,112
2010-10-04 05:30:11,18.9,8.7,10.2,0.0,2.3,111
2010-10-04 05:35:11,18.9,8.9,10.0,0.0,2.3,111
2010-10-04 05:40:11,18.9,8.8,10.1,0.0,2.3,112
2010-10-04 05:45:11,18.9,9.0,9.9,0.0,2.4,111
2010-10-04 05:50:11,18.9,8.9,10.1,0.0,3.3,112
2010-10-04 05:55:11,18.9,9.0,9.9,0.0,2.5,111
2010-10-04 06:00:11,18.9,9.1,9.8,0.0,2.4,111
2010-10-04 06:05:11,18.9,9.0,9.8,0.0,2.3,112
2010-10-04 06:10:11,18.9,9.0,9.9,0.0,2.3,111
2010-10-04 06:15:11,18.9,9.1,9.8,0.0,2.3,112
2010-10-04 06:20:11,18.9,9.1,9.8,0.1,2.3,111
2010-10-04 06:25:11,18.9,9.1,9.8,0.2,2.3,112
2010-10-04 06:30:11,19.0,9.0,10.0,0.4,2.3,111
2010-10-04 06:35:11,19.0,9.2,9.8,0.8,2.3,111
2010-10-04 06:40:11,19.0,9.2,9.8,1.8,2.3,112
2010-10-04 06:45:11,19.1,9.2,9.9,4.2,2.3,111
2010-10-04 06:50:11,19.1,9.4,9.7,8.0,2.3,111
2010-10-04 06:55:11,19.1,9.4,9.8,12.8,2.3,112
2010-10-04 07:00:11,19.1,9.4,9.7,18.6,2.3,111
2010-10-04 07:05:11,19.1,9.4,9.7,22.3,2.3,112
2010-10-04 07:10:11,19.2,9.4,9.8,25.2,2.3,111
2010-10-04 07:15:11,19.2,9.5,9.7,27.3,2.3,111
2010-10-04 07:20:11,19.2,9.5,9.7,28.7,2.3,111
2010-10-04 07:25:11,19.2,9.5,9.8,29.4,2.3,112
2010-10-04 07:30:11,19.3,9.4,9.8,30.2,2.4,111
2010-10-04 07:35:11,19.3,9.5,9.7,30.8,2.4,112
2010-10-04 07:40:11,19.3,9.4,9.9,31.0,2.5,112
2010-10-04 07:45:11,19.3,9.5,9.8,31.2,2.6,111
2010-10-04 07:50:11,19.3,9.4,10.0,31.2,2.6,112
2010-10-04 07:55:11,19.4,9.4,9.9,31.1,2.6,111
2010-10-04 08:00:11,19.4,9.4,9.9,31.1,2.6,111
2010-10-04 08:05:11,19.4,9.4,10.0,31.4,2.6,112
2010-10-04 08:10:11,19.4,9.5,9.9,31.6,2.6,111
2010-10-04 08:15:11,19.4,9.4,9.9,31.9,2.6,112
2010-10-04 08:20:11,19.4,9.6,9.8,32.0,2.6,111
2010-10-04 08:25:11,19.4,9.7,9.8,32.1,2.6,112
2010-10-04 08:30:11,19.5,9.6,9.9,32.3,2.7,112
2010-10-04 08:35:11,19.6,9.5,10.0,32.2,2.6,111
2010-10-04 08:40:11,19.6,9.6,9.9,32.1,2.7,112
2010-10-04 08:45:11,19.6,9.7,9.9,32.2,2.7,111
2010-10-04 08:50:11,19.6,9.6,10.0,32.3,2.7,112
2010-10-04 08:55:11,19.6,9.8,9.8,32.3,2.6,112
2010-10-04 09:00:11,19.7,9.8,9.9,32.4,2.5,111
2010-10-04 09:05:11,19.7,9.7,10.0,32.4,2.3,112
2010-10-04 09:10:11,19.8,9.7,10.1,32.4,2.3,111
2010-10-04 09:15:11,19.8,9.7,10.2,32.4,2.3,111
2010-10-04 09:20:11,19.9,9.8,10.1,32.4,2.3,112
2010-10-04 09:25:11,19.9,9.9,10.0,32.4,2.3,112
2010-10-04 09:30:11,19.9,9.9,10.0,32.4,2.3,111
2010-10-04 09:35:11,20.0,10.0,9.9,32.4,2.3,112
2010-10-04 09:40:11,19.7,9.9,9.8,32.4,2.3,112
2010-10-04 09:45:11,20.1,10.1,10.0,32.4,2.3,112
2010-10-04 09:50:11,20.2,10.2,9.9,32.4,2.3,111
2010-10-04 09:55:11,20.2,10.1,10.1,32.4,2.3,112
2010-10-04 10:00:11,20.3,10.5,9.8,32.5,2.3,111
2010-10-04 10:05:11,20.5,10.3,10.2,32.4,2.3,112
2010-10-04 10:10:11,20.5,10.4,10.1,32.4,2.3,112
2010-10-04 10:15:11,20.6,10.5,10.1,32.4,2.3,111
2010-10-04 10:20:11,20.6,10.6,10.0,32.4,2.3,112
2010-10-04 10:25:11,20.6,10.3,10.3,32.4,2.3,111
2010-10-04 10:30:11,20.5,10.5,10.0,32.4,2.3,112
2010-10-04 10:35:11,20.1,10.4,9.8,32.4,2.3,111
2010-10-04 10:40:11,20.5,10.7,9.9,32.5,2.3,112
2010-10-04 10:45:11,20.6,10.4,10.2,32.4,2.3,111
2010-10-04 10:50:11,20.8,10.9,9.9,32.5,2.3,112
2010-10-04 10:55:11,21.1,4.9,16.2,32.5,2.3,111
2010-10-04 11:00:11,23.2,1.1,22.1,32.5,2.3,111
2010-10-04 11:05:11,25.8,2.4,23.5,32.5,2.3,111
2010-10-04 11:10:11,26.6,2.0,24.6,32.5,2.3,112
2010-10-04 11:15:11,26.7,1.8,24.9,32.5,2.3,111
2010-10-04 11:20:11,27.1,2.7,24.3,32.6,2.2,112
2010-10-04 11:25:11,27.8,1.4,26.3,32.6,2.3,111
2010-10-04 11:30:11,28.2,2.1,26.2,32.6,2.3,111
2010-10-04 11:35:11,28.5,1.1,27.4,32.6,2.3,111
2010-10-04 11:40:11,29.2,3.4,25.8,32.6,2.3,111
2010-10-04 11:45:11,29.3,6.5,22.8,32.6,2.3,112
2010-10-04 11:50:11,28.8,8.7,20.1,32.5,2.3,112
2010-10-04 11:55:11,25.4,11.4,14.0,32.5,2.3,111
2010-10-04 12:00:11,24.0,11.7,12.4,32.5,2.2,111
2010-10-04 12:05:11,24.0,13.3,10.7,32.6,2.2,112
2010-10-04 12:10:11,24.6,13.9,10.7,32.6,2.3,111
2010-10-04 12:15:11,24.8,12.7,12.0,32.6,2.3,112
2010-10-04 12:20:11,24.2,12.4,11.9,32.5,2.3,111
2010-10-04 12:25:11,23.8,12.1,11.7,32.5,2.2,112
2010-10-04 12:30:11,23.5,12.6,10.8,32.5,2.3,111
2010-10-04 12:35:11,23.4,12.4,10.9,32.5,2.3,112
2010-10-04 12:40:11,23.2,12.4,10.8,32.5,2.3,111
2010-10-04 12:45:11,23.1,12.5,10.6,32.5,2.3,112
2010-10-04 12:50:11,23.1,12.3,10.7,32.5,2.3,111
2010-10-04 12:55:11,23.0,12.4,10.6,32.5,2.3,112
2010-10-04 13:00:11,23.0,12.3,10.7,32.5,2.3,112
2010-10-04 13:05:11,23.1,12.6,10.5,32.5,2.3,111
2010-10-04 13:10:11,23.3,12.8,10.5,32.5,2.3,112
2010-10-04 13:15:11,23.4,12.3,11.1,32.5,2.3,111
2010-10-04 13:20:11,23.4,12.3,11.1,32.5,2.3,111
2010-10-04 13:25:11,23.2,12.7,10.6,32.5,2.3,112
2010-10-04 13:30:11,23.1,12.4,10.7,32.5,2.3,111
2010-10-04 13:35:11,23.2,12.5,10.6,32.5,2.3,111
2010-10-04 13:40:11,23.3,12.4,10.9,32.5,2.3,112
2010-10-04 13:45:11,23.2,12.1,11.1,32.5,2.3,112
2010-10-04 13:50:11,23.0,12.0,11.0,32.5,2.3,111
2010-10-04 13:55:11,22.9,12.2,10.7,32.5,2.3,111
2010-10-04 14:00:11,22.9,12.2,10.6,32.5,2.3,112
2010-10-04 14:05:11,22.9,12.3,10.6,32.5,2.3,111
2010-10-04 14:10:11,22.9,12.7,10.2,32.5,2.3,112
2010-10-04 14:15:11,23.0,12.7,10.3,32.5,2.3,111
2010-10-04 14:20:11,23.1,12.6,10.5,32.5,2.3,112
2010-10-04 14:25:11,23.4,12.4,11.0,32.4,2.3,111
2010-10-04 14:30:11,23.2,12.5,10.7,32.4,2.3,112
2010-10-04 14:35:11,23.3,12.4,10.9,32.4,2.3,111
2010-10-04 14:40:11,23.4,11.8,11.6,32.4,2.3,112
2010-10-04 14:45:11,23.2,11.7,11.5,32.4,2.3,111
2010-10-04 14:50:11,23.1,11.5,11.7,32.5,2.3,112
2010-10-04 14:55:11,23.1,11.5,11.6,32.4,2.3,111
2010-10-04 15:00:11,23.1,11.2,11.9,32.4,2.3,111
2010-10-04 15:05:11,22.8,11.0,11.8,32.4,2.3,111
2010-10-04 15:10:11,22.6,11.2,11.4,32.4,2.3,112
2010-10-04 15:15:11,22.5,11.5,11.1,32.5,2.3,111
2010-10-04 15:20:11,22.8,12.3,10.4,32.5,2.3,112
2010-10-04 15:25:11,23.3,12.2,11.0,32.5,2.3,111
2010-10-04 15:30:11,23.7,11.6,12.1,32.5,2.3,111
2010-10-04 15:35:11,23.9,11.3,12.6,32.5,2.0,111
2010-10-04 15:40:11,23.8,11.5,12.4,32.5,2.0,112
2010-10-04 15:45:12,23.3,11.2,12.1,32.5,2.0,111
2010-10-04 15:50:12,23.5,11.4,12.1,32.5,2.1,112
2010-10-04 15:55:12,23.4,11.5,11.9,32.5,2.3,111
2010-10-04 16:00:12,24.0,10.7,13.3,32.6,2.2,111
2010-10-04 16:05:12,25.5,4.9,20.6,32.6,2.4,112
2010-10-04 16:10:12,29.2,4.5,24.7,32.5,2.3,112
2010-10-04 16:15:12,30.2,6.6,23.7,32.6,2.3,111
2010-10-04 16:20:12,30.6,4.7,25.8,32.6,2.3,112
2010-10-04 16:25:12,31.2,5.3,25.9,32.6,2.3,111
2010-10-04 16:30:12,31.3,-1.3,32.5,32.5,2.3,112
2010-10-04 16:35:12,30.8,-0.4,31.2,32.5,2.3,111
2010-10-04 16:40:12,30.1,1.7,28.4,32.5,2.3,111
2010-10-04 16:45:12,29.8,1.8,28.0,32.6,2.3,112
2010-10-04 16:50:12,30.0,-0.7,30.7,32.6,2.3,111
2010-10-04 16:55:12,30.8,-1.9,32.7,32.6,2.3,112
2010-10-04 17:00:12,31.3,-1.4,32.7,32.6,2.3,112
2010-10-04 17:05:12,31.1,-3.0,34.1,32.6,2.3,111
2010-10-04 17:10:12,30.6,-3.8,34.4,32.5,2.3,112
2010-10-04 17:15:12,30.2,1.2,29.0,32.6,2.3,112
2010-10-04 17:20:12,30.6,-2.3,32.9,32.6,2.3,111
2010-10-04 17:25:12,30.2,-2.8,32.9,32.6,2.3,112
2010-10-04 17:30:12,30.0,-0.3,30.3,32.6,2.3,112
2010-10-04 17:35:12,30.2,-1.8,32.0,32.6,2.3,111
2010-10-04 17:40:12,30.3,-2.3,32.6,32.6,2.3,112
2010-10-04 17:45:12,30.2,-2.8,33.0,32.6,2.3,111
2010-10-04 17:50:12,30.0,-3.3,33.3,32.5,2.3,112
2010-10-04 17:55:12,29.7,-3.9,33.6,32.5,2.3,112
2010-10-04 18:00:12,29.4,-4.4,33.8,32.5,2.3,112
2010-10-04 18:05:12,29.0,-4.2,33.2,32.5,2.3,112
2010-10-04 18:10:12,28.7,-4.6,33.3,32.5,2.3,111
2010-10-04 18:15:12,28.5,-4.8,33.3,32.4,2.3,112
2010-10-04 18:20:12,28.2,-5.2,33.4,32.4,2.3,112
2010-10-04 18:25:12,27.7,-5.6,33.3,32.2,2.3,111
2010-10-04 18:30:12,27.2,-6.5,33.7,32.0,2.3,112
2010-10-04 18:35:12,26.7,-7.1,33.8,31.6,2.3,112
2010-10-04 18:40:12,26.3,-7.4,33.6,31.0,2.3,112
2010-10-04 18:45:12,25.9,-7.9,33.9,30.2,2.4,111
2010-10-04 18:50:12,25.6,-8.1,33.8,28.9,2.3,111
2010-10-04 18:55:12,25.4,-8.2,33.5,26.7,2.3,112
2010-10-04 19:00:12,25.1,-8.5,33.6,22.8,2.2,112
2010-10-04 19:05:12,24.9,-8.8,33.7,17.4,2.3,112
2010-10-04 19:10:12,24.9,-8.9,33.8,11.7,2.3,112
2010-10-04 19:15:12,24.8,-8.8,33.6,7.0,2.3,111
2010-10-04 19:20:12,24.6,-9.0,33.7,3.9,2.3,112
2010-10-04 19:25:12,24.6,-8.9,33.6,2.0,2.3,112
2010-10-04 19:30:12,24.7,-9.2,33.8,1.0,2.3,112
2010-10-04 19:35:12,24.7,-9.5,34.2,0.5,2.3,112
2010-10-04 19:40:12,24.6,-9.7,34.3,0.3,2.3,111
2010-10-04 19:45:12,24.7,-10.2,34.9,0.1,2.3,112
2010-10-04 19:50:12,24.4,-10.7,35.2,0.0,2.3,112
2010-10-04 19:55:12,24.4,-11.0,35.4,0.0,2.3,111
2010-10-04 20:00:12,24.3,-10.9,35.2,0.0,2.3,112
2010-10-04 20:05:12,24.2,-10.5,34.7,0.0,2.3,112
2010-10-04 20:10:12,24.1,-10.5,34.5,0.0,2.3,112
2010-10-04 20:15:12,24.1,-10.6,34.6,0.0,2.3,111
2010-10-04 20:20:12,24.0,-10.8,34.8,0.0,2.3,112
2010-10-04 20:25:12,24.0,-10.7,34.7,0.0,2.3,112
2010-10-04 20:30:12,23.9,-11.0,34.9,0.0,2.3,111
2010-10-04 20:35:12,23.7,-11.7,35.4,0.0,2.3,112
2010-10-04 20:40:12,23.6,-12.4,36.0,0.0,2.3,111
2010-10-04 20:45:12,23.5,-12.4,35.9,0.0,2.3,111
2010-10-04 20:50:12,23.5,-12.5,36.0,0.0,2.3,111
2010-10-04 20:55:12,23.5,-13.0,36.5,0.0,2.3,112
2010-10-04 21:00:12,23.4,-13.4,36.8,0.0,2.3,112
2010-10-04 21:05:12,23.4,-13.1,36.5,0.0,2.2,111
2010-10-04 21:10:12,23.3,-13.3,36.5,0.0,2.2,112
2010-10-04 21:15:12,23.2,-13.3,36.6,0.0,2.2,111
2010-10-04 21:20:12,23.2,-13.5,36.7,0.0,2.2,112
2010-10-04 21:25:12,23.2,-13.8,37.0,0.0,2.3,111
2010-10-04 21:30:12,23.2,-13.6,36.8,0.0,2.3,112
2010-10-04 21:35:12,23.2,-13.1,36.4,0.0,2.3,111
2010-10-04 21:40:12,23.3,-13.4,36.7,0.0,2.2,112
2010-10-04 21:45:12,23.3,-13.2,36.5,0.0,2.2,111
2010-10-04 21:50:12,23.2,-13.1,36.3,0.0,2.3,112
2010-10-04 21:55:12,23.3,-12.4,35.7,0.0,2.2,111
2010-10-04 22:00:12,22.9,-12.1,35.0,0.0,2.2,111
2010-10-04 22:05:12,23.2,-12.1,35.3,0.0,2.3,111
2010-10-04 22:10:12,23.2,-11.6,34.8,0.0,2.3,112
2010-10-04 22:15:12,23.3,-11.7,35.0,0.0,2.3,111
2010-10-04 22:20:12,23.3,-11.8,35.1,0.0,2.2,111
2010-10-04 22:25:12,23.3,-11.7,35.0,0.0,2.2,111
2010-10-04 22:30:12,23.4,-11.7,35.1,0.0,2.2,112
2010-10-04 22:35:12,23.0,-11.8,34.7,0.0,2.2,111
2010-10-04 22:40:12,23.4,-11.8,35.3,0.0,2.2,111
2010-10-04 22:45:12,23.4,-11.7,35.1,0.0,2.2,111
2010-10-04 22:50:12,23.3,-11.9,35.2,0.0,2.3,111
2010-10-04 22:55:12,22.8,-11.8,34.5,0.0,2.3,112
2010-10-04 23:00:12,23.2,-11.5,34.7,0.0,2.3,111
2010-10-04 23:05:12,23.2,-11.0,34.2,0.0,2.3,112
2010-10-04 23:10:12,23.1,-11.1,34.2,0.0,2.3,111
2010-10-04 23:15:12,23.2,-10.6,33.8,0.0,2.3,112
2010-10-04 23:20:12,23.2,-10.1,33.3,0.0,2.3,112
2010-10-04 23:25:12,23.3,-9.0,32.3,0.0,2.3,112
2010-10-04 23:30:12,23.3,-8.5,31.7,0.0,2.3,111
2010-10-04 23:35:12,23.3,-7.8,31.1,0.0,2.3,112
2010-10-04 23:40:12,23.4,-8.0,31.4,0.0,2.2,111
2010-10-04 23:45:12,23.4,-8.5,31.8,0.0,2.2,112
2010-10-04 23:50:12,23.3,-8.8,32.1,0.0,2.2,112
2010-10-04 23:55:12,23.3,-8.8,32.2,0.0,2.2,112
